When you browse on this site, cookies collect data to enhance your experience and personalize the content and advertising you see.
Visit our Privacy Policy to learn more. By continuing to use the site, you agree to this use of cookies and data.
  • In Latvia
  • List of Countries
  • For 7 days
  • Water Temperature
  • Satellite Maps
  • Weather Map
  • Weather Widgets
  • user-avatar
    Login

    Hourly Weather Zabudenovskiy

    Today, 24 March, Sunday

    Time Temperature Precipitation Wind Pressure Humidity
    00:00 +1°C° 0.3 mm 4 mps 758 mmHg 82%
    01:00 +1°C° 0.2 mm 4 mps 758 mmHg 83%
    02:00 0°C° 0.2 mm 4 mps 758 mmHg 83%
    03:00 0°C° 0 mm 4 mps 758 mmHg 80%
    04:00 0°C° 0 mm 4 mps 758 mmHg 81%
    05:00 0°C° 0 mm 4 mps 758 mmHg 82%
    06:00 +1°C° 0 mm 3 mps 758 mmHg 83%
    07:00 +1°C° 0 mm 3 mps 759 mmHg 81%
    08:00 0°C° 0 mm 4 mps 759 mmHg 79%
    09:00 +1°C° 0 mm 4 mps 759 mmHg 76%
    10:00 +3°C° 0.2 mm 4 mps 759 mmHg 72%
    11:00 +3°C° 0.2 mm 4 mps 759 mmHg 69%
    12:00 +4°C° 0.2 mm 4 mps 759 mmHg 65%
    13:00 +4°C° 0.2 mm 4 mps 759 mmHg 63%
    14:00 +5°C° 0.2 mm 5 mps 759 mmHg 60%
    15:00 +5°C° 0.2 mm 5 mps 759 mmHg 58%
    16:00 +5°C° 0.1 mm 5 mps 759 mmHg 60%
    17:00 +5°C° 0.1 mm 5 mps 759 mmHg 61%
    18:00 +5°C° 0.1 mm 4 mps 759 mmHg 63%
    19:00 +4°C° 0 mm 4 mps 759 mmHg 65%
    20:00 +4°C° 0 mm 4 mps 760 mmHg 67%
    21:00 +4°C° 0 mm 3 mps 760 mmHg 69%
    22:00 +3°C° 0 mm 4 mps 760 mmHg 71%
    23:00 +3°C° 0 mm 4 mps 760 mmHg 73%

    Tomorrow, 25 March, Monday

    Time Temperature Precipitation Wind Pressure Humidity
    00:00 +1°C° 0 mm 4 mps 760 mmHg 76%
    01:00 +1°C° 0 mm 4 mps 760 mmHg 76%
    02:00 +1°C° 0 mm 4 mps 760 mmHg 77%
    03:00 +1°C° 0 mm 4 mps 760 mmHg 78%
    04:00 +1°C° 0 mm 4 mps 759 mmHg 78%
    05:00 +1°C° 0 mm 4 mps 759 mmHg 78%
    06:00 +1°C° 0 mm 4 mps 759 mmHg 78%
    07:00 +3°C° 0 mm 4 mps 759 mmHg 76%
    08:00 +4°C° 0 mm 4 mps 760 mmHg 73%
    09:00 +4°C° 0 mm 4 mps 760 mmHg 71%
    10:00 +7°C° 0 mm 3 mps 760 mmHg 67%
    11:00 +8°C° 0 mm 3 mps 760 mmHg 62%
    12:00 +9°C° 0 mm 3 mps 760 mmHg 58%
    13:00 +9°C° 0 mm 3 mps 759 mmHg 57%
    14:00 +10°C° 0 mm 3 mps 759 mmHg 56%
    15:00 +10°C° 0 mm 4 mps 759 mmHg 54%
    16:00 +10°C° 0 mm 3 mps 759 mmHg 57%
    17:00 +9°C° 0 mm 3 mps 759 mmHg 60%
    18:00 +9°C° 0 mm 3 mps 759 mmHg 63%
    19:00 +8°C° 0 mm 3 mps 759 mmHg 67%
    20:00 +7°C° 0 mm 2 mps 760 mmHg 71%
    21:00 +6°C° 0 mm 2 mps 760 mmHg 75%
    22:00 +6°C° 0 mm 2 mps 760 mmHg 75%
    23:00 +5°C° 0 mm 2 mps 760 mmHg 75%

    Day after tomorrow, 26 March, Tuesday

    Time Temperature Precipitation Wind Pressure Humidity
    00:00 +5°C° 0 mm 2 mps 760 mmHg 75%
    01:00 +4°C° 0 mm 2 mps 760 mmHg 76%
    02:00 +4°C° 0 mm 2 mps 760 mmHg 76%
    03:00 +4°C° 0 mm 2 mps 760 mmHg 77%
    04:00 +4°C° 0 mm 2 mps 760 mmHg 77%
    05:00 +4°C° 0 mm 2 mps 760 mmHg 77%
    06:00 +4°C° 0 mm 2 mps 759 mmHg 77%
    07:00 +4°C° 0 mm 3 mps 759 mmHg 73%
    08:00 +5°C° 0 mm 4 mps 760 mmHg 69%
    09:00 +7°C° 0 mm 5 mps 760 mmHg 65%
    10:00 +8°C° 0 mm 5 mps 759 mmHg 60%
    11:00 +9°C° 0 mm 5 mps 759 mmHg 56%
    12:00 +12°C° 0 mm 5 mps 759 mmHg 51%
    13:00 +12°C° 0 mm 5 mps 759 mmHg 49%
    14:00 +13°C° 0 mm 5 mps 758 mmHg 47%
    15:00 +13°C° 0 mm 5 mps 758 mmHg 45%
    16:00 +13°C° 0 mm 4 mps 757 mmHg 48%
    17:00 +12°C° 0 mm 4 mps 757 mmHg 50%
    18:00 +11°C° 0 mm 4 mps 757 mmHg 52%
    19:00 +10°C° 0 mm 3 mps 757 mmHg 55%
    20:00 +9°C° 0 mm 3 mps 757 mmHg 57%
    21:00 +8°C° 0 mm 2 mps 758 mmHg 60%
    22:00 +8°C° 0 mm 3 mps 758 mmHg 62%
    23:00 +7°C° 0 mm 3 mps 757 mmHg 63%

    27 March, Wednesday

    Time Temperature Precipitation Wind Pressure Humidity
    00:00 +7°C° 0 mm 3 mps 757 mmHg 65%
    01:00 +7°C° 0 mm 2 mps 757 mmHg 69%
    02:00 +7°C° 0 mm 2 mps 757 mmHg 74%
    03:00 +6°C° 0 mm 2 mps 757 mmHg 79%
    04:00 +6°C° 0 mm 2 mps 757 mmHg 81%
    05:00 +7°C° 0 mm 1 mps 757 mmHg 84%
    06:00 +7°C° 0 mm 1 mps 757 mmHg 86%
    07:00 +7°C° 0 mm 2 mps 757 mmHg 82%
    08:00 +8°C° 0 mm 2 mps 758 mmHg 77%
    09:00 +9°C° 0 mm 2 mps 758 mmHg 73%
    10:00 +10°C° 0 mm 4 mps 758 mmHg 63%
    11:00 +10°C° 0 mm 5 mps 758 mmHg 53%
    12:00 +11°C° 0 mm 6 mps 758 mmHg 43%
    13:00 +11°C° 0 mm 7 mps 758 mmHg 41%
    14:00 +11°C° 0 mm 8 mps 758 mmHg 39%
    15:00 +11°C° 0 mm 9 mps 758 mmHg 37%
    16:00 +10°C° 0 mm 8 mps 759 mmHg 36%
    17:00 +9°C° 0 mm 8 mps 759 mmHg 35%
    18:00 +8°C° 0 mm 7 mps 760 mmHg 35%
    19:00 +5°C° 0 mm 7 mps 760 mmHg 41%
    20:00 +4°C° 0 mm 7 mps 761 mmHg 47%
    21:00 +3°C° 0 mm 7 mps 761 mmHg 53%
    22:00 +3°C° 0 mm 6 mps 762 mmHg 56%
    23:00 +2°C° 0 mm 6 mps 762 mmHg 60%

    28 March, Thursday

    Time Temperature Precipitation Wind Pressure Humidity
    00:00 +1°C° 0 mm 6 mps 762 mmHg 63%
    01:00 +1°C° 0 mm 5 mps 763 mmHg 65%
    02:00 +1°C° 0 mm 5 mps 763 mmHg 68%
    03:00 +1°C° 0 mm 5 mps 764 mmHg 70%
    04:00 0°C° 0 mm 5 mps 764 mmHg 70%
    05:00 0°C° 0 mm 4 mps 765 mmHg 71%
    06:00 -1°C° 0 mm 4 mps 765 mmHg 71%
    07:00 0°C° 0 mm 4 mps 766 mmHg 66%
    08:00 +1°C° 0 mm 5 mps 766 mmHg 61%
    09:00 +1°C° 0 mm 5 mps 767 mmHg 56%
    10:00 +2°C° 0 mm 5 mps 767 mmHg 51%
    11:00 +5°C° 0 mm 5 mps 767 mmHg 45%
    12:00 +6°C° 0 mm 5 mps 767 mmHg 40%
    13:00 +6°C° 0 mm 5 mps 767 mmHg 39%
    14:00 +6°C° 0 mm 5 mps 767 mmHg 38%
    15:00 +7°C° 0 mm 5 mps 767 mmHg 38%
    16:00 +6°C° 0 mm 5 mps 767 mmHg 39%
    17:00 +6°C° 0 mm 4 mps 767 mmHg 41%
    18:00 +6°C° 0 mm 4 mps 767 mmHg 43%
    19:00 +5°C° 0 mm 3 mps 767 mmHg 48%
    20:00 +4°C° 0 mm 3 mps 768 mmHg 54%
    21:00 +5°C° 0 mm 2 mps 768 mmHg 59%
    22:00 +4°C° 0 mm 2 mps 768 mmHg 63%
    23:00 +4°C° 0 mm 2 mps 768 mmHg 67%

    29 March, Friday

    Time Temperature Precipitation Wind Pressure Humidity
    00:00 +3°C° 0 mm 2 mps 768 mmHg 70%
    01:00 +2°C° 0 mm 2 mps 768 mmHg 72%
    02:00 +2°C° 0 mm 2 mps 768 mmHg 73%
    03:00 +2°C° 0 mm 2 mps 768 mmHg 74%
    04:00 +1°C° 0 mm 2 mps 768 mmHg 75%
    05:00 +1°C° 0 mm 2 mps 768 mmHg 77%
    06:00 +1°C° 0 mm 2 mps 769 mmHg 78%
    07:00 +2°C° 0 mm 2 mps 769 mmHg 71%
    08:00 +3°C° 0 mm 2 mps 769 mmHg 64%
    09:00 +4°C° 0 mm 2 mps 769 mmHg 57%
    10:00 +5°C° 0 mm 2 mps 769 mmHg 52%
    11:00 +4°C° 0 mm 3 mps 768 mmHg 46%
    12:00 +5°C° 0 mm 3 mps 768 mmHg 41%
    13:00 +7°C° 0 mm 3 mps 767 mmHg 40%
    14:00 +7°C° 0 mm 3 mps 766 mmHg 38%
    15:00 +7°C° 0 mm 4 mps 766 mmHg 37%
    16:00 +7°C° 0 mm 4 mps 765 mmHg 37%
    17:00 +7°C° 0 mm 4 mps 765 mmHg 38%
    18:00 +6°C° 0 mm 4 mps 764 mmHg 38%
    19:00 +6°C° 0 mm 4 mps 764 mmHg 41%
    20:00 +5°C° 0 mm 4 mps 764 mmHg 44%
    21:00 +5°C° 0 mm 4 mps 764 mmHg 47%
    22:00 +5°C° 0.1 mm 4 mps 763 mmHg 49%
    23:00 +5°C° 0.1 mm 4 mps 763 mmHg 51%
    Show more